RH
93 95 101 104 102 101 100 97 101 98 91 88 94 101 102 100 101 101 99 103 99 93 95 97 99 98 100 103 100 98 100 100 99 101 99 91 80 72 69 66 62 65 66 66 65 63 64 66 66 62 64 71 80 89 80 66 62 57 48 41 36 37 55 67 70 75 73 71 75 84 90 93 96 96 93 84 77 71 66 60 58 59 69 94 101 96 93 74 55 50 53 68 85 86 80 70 56
90 98 103 105 102 100 100 98 99 100 97 94 93 97 101 100 100 100 100 101 98 99 102 102 101 100 102 103 103 102 100 101 99 101 103 97 92 91 90 90 87 84 81 79 81 80 80 82 80 72 68 68 65 68 69 65 61 56 50 44 39 43 67 79 73 72 67 63 65 75 81 78 76 81 85 74 62 60 58 50 57 81 91 94 99 101 103 96 76 57 54 64 78 91 97 92 74
64 87 99 100 103 105 100 97 102 106 99 90 92 98 101 102 101 99 101 102 99 103 100 90 88 89 96 98 99 103 102 101 101 100 100 101 101 101 100 97 92 91 87 83 89 92 91 89 88 84 73 69 70 67 62 62 62 62 59 51 42 46 72 83 76 70 63 58 53 53 54 52 53 59 66 61 55 53 51 45 50 79 99 100 100 101 100 103 95 73 61 65 78 93 102 97 79
33 51 69 83 99 106 104 103 104 109 105 92 88 96 102 101 101 100 100 102 100 106 99 74 62 66 78 88 92 98 102 100 102 102 100 101 101 99 97 94 87 85 83 74 74 83 93 93 90 90 84 76 72 72 68 64 65 67 65 58 51 49 59 65 65 65 63 61 60 61 56 48 46 48 52 53 53 50 47 46 46 57 78 95 100 100 99 100 101 87 68 59 67 84 93 88 77
26 30 36 47 64 80 94 105 105 104 106 102 91 91 100 102 100 101 103 103 98 100 103 87 69 64 68 78 80 82 94 97 97 101 104 103 101 100 98 99 96 94 95 91 87 90 101 106 102 94 86 83 73 64 64 75 78 71 67 64 62 59 57 57 55 55 57 58 61 70 69 57 49 48 50 51 51 48 46 46 47 48 55 70 82 89 93 95 96 88 75 62 60 74 86 84 78
29 30 29 29 31 41 59 75 90 102 106 105 99 93 92 95 95 98 99 90 81 78 85 94 92 87 81 78 71 66 82 95 95 94 96 101 102 99 95 97 99 100 101 101 100 101 104 105 109 104 90 84 83 76 71 83 86 74 73 71 69 67 63 62 56 51 50 51 54 59 62 56 50 50 50 50 50 47 45 46 48 49 49 55 63 72 77 79 78 71 70 66 63 67 69 66 63
32 28 29 31 28 32 42 53 78 100 104 103 102 99 89 83 83 86 91 76 62 60 64 79 89 95 98 92 78 64 74 90 98 97 91 92 98 101 99 96 97 99 100 102 102 100 102 101 102 106 105 96 89 86 78 80 87 83 83 78 74 76 76 74 67 63 60 56 53 51 52 50 47 51 52 51 52 49 46 46 50 51 51 52 55 60 62 62 59 57 58 62 66 63 53 49 47
39 29 27 29 31 42 52 57 79 94 95 103 104 104 98 84 78 78 86 84 70 62 67 82 83 81 92 101 97 80 72 77 84 95 100 97 94 97 100 100 100 101 100 104 104 101 101 103 102 100 104 105 95 89 80 76 84 87 87 85 85 90 95 95 88 82 77 67 56 50 51 52 48 49 51 51 51 51 48 46 48 52 54 55 56 57 58 56 54 54 54 57 63 59 54 50 45
45 33 27 30 42 59 62 56 67 80 82 92 100 104 105 91 84 78 74 83 90 82 81 98 94 70 63 80 101 99 86 80 72 74 89 101 102 98 98 98 99 98 96 95 93 94 95 92 99 104 100 102 100 97 94 88 88 90 93 100 102 98 95 92 88 82 79 72 61 54 51 53 50 44 46 48 48 51 52 48 45 47 51 55 59 61 62 59 54 52 52 54 57 55 54 51 47
49 39 27 30 59 84 83 71 64 70 73 75 81 83 92 95 91 84 71 65 85 100 96 104 100 74 59 60 80 95 97 97 88 76 74 84 97 99 96 93 92 88 80 74 66 71 79 77 87 100 102 103 102 102 103 100 99 99 100 105 107 99 92 87 85 84 84 79 70 63 57 57 56 49 47 47 47 49 54 53 50 49 48 50 54 58 60 57 54 51 49 47 48 47 47 49 51
56 48 34 27 52 85 96 95 82 74 70 64 62 56 63 88 98 92 82 63 65 91 104 107 92 79 85 75 70 76 80 86 92 92 84 84 92 94 92 88 83 74 62 54 48 51 57 66 80 85 90 98 104 109 106 101 101 104 103 103 104 98 91 86 85 85 86 84 77 71 61 60 64 59 54 52 49 49 58 58 56 54 48 46 47 50 52 53 54 52 49 46 45 43 44 47 51
58 53 44 32 35 61 84 97 96 84 70 56 50 44 42 66 90 92 92 83 70 74 88 93 74 67 86 92 88 86 80 76 75 78 79 81 82 78 74 69 64 54 45 42 41 46 48 59 79 83 80 83 92 102 100 95 97 99 100 101 101 96 91 87 86 86 86 85 78 70 61 60 64 60 55 54 49 49 58 60 60 60 53 49 46 47 50 55 60 60 57 53 50 46 45 47 49
53 51 48 42 33 41 60 79 94 97 85 68 54 48 43 49 67 76 81 86 82 75 70 66 58 59 75 90 93 93 98 97 91 84 79 79 79 78 73 61 52 47 45 47 48 50 49 51 67 76 78 80 86 91 89 87 83 79 78 79 79 79 81 84 85 83 80 76 71 62 56 61 60 54 53 52 48 47 55 59 61 64 59 54 48 46 47 53 59 61 60 58 58 56 54 52 52
51 50 49 47 40 36 43 56 75 95 100 92 78 66 59 54 49 50 54 60 65 65 56 47 46 52 66 88 94 87 85 90 98 102 100 97 93 94 97 86 71 64 61 65 67 62 57 54 55 59 64 68 71 72 71 68 63 58 56 56 58 61 67 72 75 74 71 67 63 54 50 57 55 51 54 54 52 49 54 60 63 65 61 55 51 49 50 52 56 61 66 67 68 68 67 63 58
44 47 53 56 52 43 39 45 58 80 96 98 93 84 76 70 56 45 44 48 50 48 46 44 45 49 54 71 88 90 83 77 81 91 99 104 104 100 101 101 92 89 88 88 89 84 78 75 68 61 58 57 57 58 57 56 57 57 56 57 58 60 61 62 62 62 61 57 51 47 46 51 52 53 57 58 58 56 59 63 67 70 66 59 58 59 59 61 64 68 72 75 76 75 72 66 61
29 32 49 64 66 59 49 43 48 63 82 93 92 87 82 80 76 67 63 63 59 52 50 49 48 51 53 59 69 77 82 83 84 86 88 91 100 102 100 102 99 99 103 102 102 100 97 95 88 80 69 61 59 58 58 58 60 61 61 60 58 59 59 60 59 55 53 53 50 48 49 51 53 55 55 54 56 59 62 65 68 69 67 64 65 66 67 69 71 74 78 82 84 81 73 63 57
21 19 34 64 79 79 72 58 48 49 62 78 81 83 89 88 87 85 84 82 71 62 60 59 56 54 55 60 65 70 75 80 84 87 89 89 92 96 99 101 101 101 103 104 103 102 102 103 102 99 90 80 70 64 61 60 62 63 61 61 63 68 71 73 73 67 62 64 64 64 67 71 72 69 65 61 57 56 58 61 63 64 64 64 64 65 67 69 72 75 80 82 82 75 65 56 52
20 18 23 56 88 92 90 85 70 55 51 59 62 69 88 100 99 94 93 93 83 74 72 70 69 63 55 52 59 69 74 77 75 69 71 81 89 96 100 100 100 100 100 101 101 101 102 103 104 103 102 101 92 82 76 72 72 73 71 74 81 88 89 87 86 82 79 79 80 84 88 90 91 91 88 84 76 69 64 61 61 61 60 60 60 62 63 65 68 69 68 66 62 56 48 46 47
18 18 18 44 85 92 82 80 79 72 58 54 53 52 66 88 100 101 101 99 93 91 91 86 79 71 59 50 50 57 62 64 59 51 51 60 72 81 90 98 103 104 103 100 99 102 106 105 104 102 102 104 103 100 97 89 87 88 86 87 93 97 97 94 93 92 93 94 93 94 97 97 100 101 100 97 89 82 78 71 68 66 63 61 61 61 62 62 61 56 49 42 37 35 34 37 42
22 21 23 35 66 81 68 56 56 62 64 61 58 52 51 63 79 90 101 105 100 101 105 101 94 86 74 61 56 55 57 58 55 52 53 57 61 61 64 73 82 91 92 83 77 83 95 104 104 102 103 102 101 103 104 100 97 98 95 96 99 101 100 99 100 100 101 103 102 101 102 101 97 89 83 82 77 73 75 72 69 69 67 64 63 62 61 58 52 43 34 29 26 24 24 28 34
33 32 36 39 48 59 59 50 40 38 51 61 59 55 50 52 60 67 78 94 100 100 105 104 100 101 96 85 76 68 64 64 62 60 59 58 59 57 53 53 57 63 65 59 56 62 76 96 103 100 102 104 103 102 102 102 103 103 100 95 91 87 82 80 85 89 92 94 97 102 99 89 77 69 65 63 60 57 57 59 60 62 63 61 60 59 57 53 44 33 27 25 24 23 21 21 24
39 38 38 38 37 36 38 43 40 30 36 51 52 48 48 48 55 62 63 70 82 88 96 101 101 103 103 100 96 90 85 80 75 71 67 62 58 56 55 56 59 59 61 62 63 64 62 79 101 104 102 102 103 104 104 104 103 103 99 91 83 77 68 61 61 64 65 66 72 78 74 65 63 68 70 68 65 61 57 54 53 54 55 57 57 56 54 52 44 32 27 26 24 24 22 21 21
37 36 32 30 28 22 21 29 33 28 31 42 42 37 38 38 41 55 67 69 70 76 81 85 91 94 99 103 101 101 102 98 95 90 83 76 69 64 61 63 67 70 75 73 71 69 57 70 100 103 93 89 89 93 97 101 102 101 100 95 90 85 78 71 64 60 59 59 61 63 63 68 78 86 88 85 79 73 68 64 60 56 56 60 63 62 57 56 50 35 28 27 25 25 24 23 22
38 36 32 29 27 22 19 21 22 23 28 32 30 27 28 30 25 30 54 68 68 70 68 65 69 71 78 87 88 94 98 96 95 94 92 90 85 80 77 77 81 83 82 75 70 65 55 71 97 96 84 75 68 67 68 74 83 91 96 99 99 95 91 86 81 76 74 74 74 76 80 89 95 96 93 87 75 65 62 64 64 63 63 65 70 70 65 60 50 34 28 28 25 25 25 24 23
46 43 37 32 31 30 28 26 23 22 26 27 25 23 22 25 23 20 35 52 59 60 52 45 46 48 52 58 62 68 72 72 71 69 70 72 71 70 72 75 81 84 79 72 70 64 56 67 83 84 76 64 54 51 51 51 53 63 75 85 94 98 99 98 96 93 90 88 89 90 92 94 93 90 86 78 64 53 49 50 54 58 62 66 69 72 69 60 45 31 27 27 25 24 23 24 23
46 44 41 38 35 35 36 35 33 30 28 28 26 25 24 24 24 27 33 38 43 46 40 29 25 28 33 38 43 46 46 46 45 43 43 44 46 49 54 61 72 81 80 76 71 65 57 55 59 60 57 53 50 54 57 50 43 44 52 62 74 85 94 99 101 100 98 98 97 95 94 92 88 82 73 60 47 39 35 36 40 45 50 55 58 60 61 53 39 28 26 25 24 23 22 23 23
33 34 36 42 41 36 34 35 38 40 36 31 28 25 22 24 26 32 38 35 34 36 34 27 19 18 20 24 31 35 36 35 33 34 35 37 39 42 48 56 67 78 84 86 82 76 69 63 59 58 57 56 55 57 55 48 45 44 45 51 61 73 82 87 90 93 93 93 93 91 87 81 74 64 52 42 34 30 29 31 34 36 40 43 45 46 45 40 31 25 24 24 23 23 22 22 22
18 19 24 35 41 40 35 32 34 41 45 41 34 27 22 23 27 33 35 35 37 38 35 31 24 19 16 18 22 24 24 24 25 26 28 30 31 34 39 45 53 62 71 78 78 77 77 75 74 72 69 61 52 48 43 42 47 52 52 53 55 62 68 70 70 71 72 71 70 67 63 59 54 46 40 40 37 32 30 30 30 31 32 33 34 34 32 29 25 23 22 22 22 22 22 22 22
14 12 14 20 29 40 43 39 33 35 42 41 34 30 28 27 30 34 34 34 41 43 38 32 27 21 18 17 19 20 21 21 22 23 23 23 23 25 27 31 36 40 46 50 52 54 57 59 61 60 56 48 42 39 39 42 48 54 57 56 53 53 56 58 58 57 56 53 51 50 49 48 43 38 39 40 34 28 27 26 25 25 24 25 25 25 24 23 22 21 21 21 21 21 21 22 22
15 13 11 11 14 27 43 48 43 41 43 42 35 31 32 31 27 29 31 31 34 35 31 28 25 23 21 21 21 21 22 22 23 23 23 23 23 23 23 25 28 32 34 34 34 34 33 34 35 36 35 36 38 40 43 46 50 55 60 60 57 53 51 52 53 53 53 53 52 51 46 40 35 34 35 31 25 22 21 20 20 20 20 20 20 21 21 20 20 20 20 20 20 20 21 21 21
17 16 13 12 10 13 26 35 39 44 45 46 43 35 33 34 28 24 24 25 27 26 24 25 27 28 26 24 26 26 25 24 25 24 24 23 23 23 23 24 25 29 33 36 37 36 36 37 39 40 40 42 44 45 46 46 47 50 54 57 57 55 52 50 50 50 51 51 47 41 34 31 30 29 26 22 19 18 18 18 18 18 18 19 19 19 19 19 20 20 20 20 20 20 20 21 21
18 18 16 15 14 12 15 17 21 28 30 35 42 40 38 35 30 27 25 22 26 28 25 25 29 32 30 28 27 27 27 27 26 25 24 24 24 25 26 25 25 25 28 31 34 36 38 41 44 46 46 46 47 47 47 45 43 43 43 45 46 47 47 45 43 41 39 36 31 28 28 28 26 22 20 19 18 17 17 17 17 17 18 18 18 19 19 19 19 19 20 20 21 21 21 22 22
19 19 19 18 16 15 15 14 13 14 15 18 25 32 38 36 29 30 30 23 22 25 27 28 29 31 29 27 27 26 26 25 25 26 25 25 25 26 27 26 25 24 24 25 26 27 27 28 30 31 32 33 35 36 36 35 35 36 38 40 42 41 39 37 33 30 28 26 25 25 25 23 21 20 20 19 19 19 19 18 18 18 18 19 19 20 20 20 21 21 21 21 22 22 22 23 23
21 17 16 17 18 17 17 18 15 13 13 12 13 17 26 32 28 29 33 30 26 25 27 29 30 30 28 25 25 24 24 24 24 24 23 23 24 26 27 26 25 24 23 24 24 24 23 23 23 23 23 23 24 25 27 28 30 32 33 33 32 30 28 26 25 25 24 24 24 23 22 22 21 21 21 21 20 20 20 20 20 20 20 21 21 21 21 21 22 22 22 23 23 23 23 24 24
16 16 15 16 18 18 18 18 17 15 14 13 13 11 14 21 23 24 27 28 28 28 28 28 28 29 29 29 27 24 23 23 24 24 23 23 25 26 26 24 24 23 23 24 24 24 23 23 24 23 23 23 23 24 24 25 26 26 26 25 24 24 23 23 23 24 24 24 24 23 23 23 23 23 22 22 22 22 22 22 22 22 22 22 22 22 22 22 22 22 22 21 22 22 22 22 23
11 13 16 17 17 18 18 18 16 15 15 13 13 13 13 14 16 18 19 18 19 21 23 24 25 26 28 30 30 26 24 23 24 25 25 24 25 26 25 24 24 23 24 25 25 24 24 24 24 24 24 24 24 24 24 24 24 25 25 25 24 24 23 23 23 24 24 25 25 25 25 25 25 25 24 24 24 23 23 23 22 22 22 22 22 21 21 21 20 20 19 19 19 18 18 18 18
9 10 11 14 15 17 18 18 16 15 14 14 13 13 13 14 15 16 16 15 14 14 16 18 20 22 25 28 29 28 26 25 25 26 27 26 26 27 27 26 26 26 26 27 28 27 27 27 26 26 25 25 25 25 25 25 26 27 27 26 26 25 25 25 26 26 27 28 27 27 26 26 26 25 24 24 23 23 22 22 21 21 20 20 19 19 18 18 17 17 16 16 15 15 15 15 15
12 10 9 10 11 13 15 15 15 15 14 14 14 13 12 13 14 14 14 14 13 12 12 13 15 17 19 21 24 26 27 27 25 26 27 27 27 28 29 30 30 31 30 31 32 31 30 29 29 28 27 27 27 27 27 27 27 28 27 27 26 27 27 27 27 27 27 27 26 26 25 24 24 23 22 21 20 19 19 18 18 17 17 17 16 16 16 15 15 15 15 15 15 15 16 16 16
17 15 12 11 11 10 11 11 11 11 12 12 13 12 12 14 14 13 13 13 13 13 12 10 11 13 14 15 17 19 22 25 25 25 25 25 26 27 28 31 33 33 33 34 35 34 33 32 32 31 30 30 30 30 29 29 28 28 27 27 27 27 26 26 25 24 24 23 21 21 20 19 19 18 18 17 16 16 15 16 15 15 15 15 16 16 16 16 16 16 16 17 17 17 18 18 18
19 18 16 16 17 14 12 12 10 8 9 10 11 9 10 13 15 14 14 14 14 15 14 12 11 12 13 12 13 13 15 18 20 21 21 21 21 22 23 26 28 29 30 31 32 31 31 31 31 30 29 28 28 28 28 27 26 26 25 24 22 22 20 19 19 18 17 17 16 16 15 15 15 15 16 15 15 15 15 16 16 16 17 17 18 17 18 18 18 18 18 19 19 20 21 21 21
15 16 17 18 19 19 17 16 13 11 10 10 9 8 8 10 10 11 12 13 13 14 14 13 12 12 12 11 11 12 13 14 16 17 18 18 18 18 18 19 20 21 22 23 24 24 24 24 24 24 23 22 22 22 22 22 21 21 19 18 17 16 16 15 15 14 14 13 14 14 14 15 16 16 17 17 17 18 18 18 19 19 19 20 20 20 20 20 21 21 21 22 22 23 24 24 24
12 13 15 16 16 16 16 16 15 14 15 14 13 10 11 13 11 11 12 12 10 10 11 12 11 10 10 10 11 11 12 12 15 16 15 16 17 17 16 16 17 17 17 18 18 17 18 18 19 19 18 18 18 19 18 18 17 16 16 16 15 15 16 16 15 15 15 15 16 17 18 19 20 21 21 20 20 20 20 20 20 20 21 21 22 22 22 22 22 22 23 24 24 25 25 26 26
11 12 13 12 13 13 12 13 12 13 14 15 15 14 15 19 21 21 18 15 13 12 12 12 10 8 8 9 10 10 10 10 12 13 13 13 14 15 15 15 15 15 15 16 16 16 17 18 18 18 18 18 18 18 18 18 17 17 17 17 18 19 21 21 20 19 19 20 21 22 22 23 24 24 23 22 22 23 23 23 23 23 23 23 23 24 24 24 24 24 24 25 25 26 27 28 27
11 12 13 11 10 11 11 11 10 10 10 11 14 14 11 14 24 27 20 17 17 16 16 17 17 17 14 12 12 12 11 10 10 11 11 11 12 13 13 13 13 13 14 14 15 16 17 17 18 18 18 18 19 20 21 21 21 21 22 23 24 26 27 27 26 25 25 26 26 26 26 25 26 26 25 25 26 26 27 27 26 25 25 25 25 26 27 27 27 27 27 27 27 27 27 28 28
10 12 12 11 10 10 10 10 10 9 8 10 15 13 7 8 18 24 18 14 16 14 13 15 21 26 24 19 16 16 16 16 17 17 16 15 15 14 14 14 13 13 13 14 15 16 16 17 18 19 21 21 22 23 25 26 26 27 29 31 32 32 33 33 32 31 30 31 30 29 28 28 28 28 28 27 28 28 28 28 27 27 27 28 28 29 29 30 29 28 27 27 26 26 26 26 26
10 12 12 11 11 11 10 9 11 10 8 13 16 12 6 6 16 21 13 9 11 13 12 11 14 20 23 22 18 17 17 17 20 22 24 24 24 23 22 22 21 20 20 19 20 20 21 22 23 25 27 28 29 30 32 33 33 35 37 40 40 40 39 39 38 37 36 36 36 34 33 33 33 32 31 29 29 28 28 28 28 28 28 28 29 29 28 28 28 27 26 26 25 25 25 25 25
10 11 11 12 11 11 11 10 11 10 10 14 14 11 8 8 16 18 10 7 9 10 11 11 11 12 14 17 18 17 17 16 17 20 22 25 26 27 27 28 29 29 29 30 31 32 33 33 34 37 38 39 39 40 40 41 42 44 48 51 51 49 48 46 46 46 45 44 44 42 40 39 39 39 37 36 35 33 31 31 32 32 32 32 32 31 30 30 30 30 31 31 31 32 32 33 33
9 10 10 10 11 11 11 11 10 10 11 14 12 11 10 10 15 15 8 7 9 10 11 13 13 12 11 13 14 16 17 16 16 16 18 21 23 24 26 27 29 29 31 32 34 36 39 41 43 47 50 52 53 54 55 57 58 58 58 61 62 60 58 58 58 57 56 56 55 53 50 48 48 49 49 48 47 43 40 41 43 43 43 42 42 41 41 41 42 44 45 45 45 44 42 41 40
9 10 10 9 11 11 10 11 10 10 12 12 11 12 12 11 12 12 10 9 8 9 12 13 14 13 13 13 13 14 15 16 16 16 16 18 20 21 23 24 25 27 28 29 30 32 35 38 42 47 53 58 63 68 71 72 73 72 70 69 71 72 72 72 71 69 68 68 68 65 60 58 58 60 62 61 57 53 52 53 55 55 55 54 53 54 54 53 52 51 50 48 46 43 39 36 35
11 11 10 11 12 11 11 11 11 11 12 13 13 14 14 12 11 11 12 11 9 9 11 13 15 15 14 14 14 14 14 14 15 16 17 17 18 19 21 22 23 24 25 26 28 29 31 34 37 40 45 49 55 62 68 72 75 75 75 74 76 79 80 79 78 77 76 76 78 77 72 68 68 69 68 67 63 58 57 56 55 55 54 51 50 49 48 46 44 42 40 37 35 33 30 28 26
13 12 11 12 12 11 11 12 12 12 12 13 15 16 16 15 13 12 13 12 10 10 11 12 14 15 15 16 16 16 15 15 15 15 16 17 17 18 19 20 21 22 24 24 26 27 29 31 33 36 38 41 44 49 54 59 63 66 67 68 69 71 73 73 74 75 74 73 74 76 73 69 66 64 60 58 54 50 47 45 43 42 41 39 38 38 37 36 35 34 32 31 29 27 26 24 23
14 14 14 13 12 11 11 13 13 12 13 15 16 15 16 16 14 14 14 14 14 13 12 12 14 16 17 16 17 18 18 17 16 16 16 16 17 18 18 19 20 21 23 24 25 26 27 28 29 32 34 36 40 44 48 52 55 57 58 59 59 59 60 62 62 63 61 59 58 59 60 57 54 52 49 47 45 43 42 40 39 37 36 35 34 34 33 32 31 29 28 26 25 24 23 22 20
12 13 15 15 13 12 12 13 14 12 13 18 18 15 15 16 15 14 13 15 17 17 14 14 15 17 19 19 18 19 18 18 17 16 16 16 17 17 18 19 20 21 22 23 25 25 26 28 28 30 31 32 35 38 42 45 48 51 53 54 55 55 55 55 55 54 53 51 50 50 51 51 50 49 47 45 43 42 40 39 36 33 31 31 30 29 29 27 26 25 23 22 21 20 18 17 16
11 11 14 16 15 14 13 12 14 15 16 20 21 17 16 16 15 14 13 14 18 19 16 16 17 18 20 20 20 19 19 18 18 18 18 17 17 17 17 18 19 19 20 21 22 23 24 25 26 27 29 31 32 34 36 38 40 43 45 47 49 49 49 49 49 49 48 47 46 46 45 44 44 43 41 39 37 36 35 34 31 29 27 26 25 24 24 22 21 19 18 17 15 14 14 13 13
12 12 14 16 16 17 15 12 14 17 18 20 21 20 19 19 17 14 13 14 18 20 17 17 19 19 20 21 21 21 21 20 20 19 19 19 18 18 18 18 18 18 18 19 19 20 21 22 23 24 26 27 29 30 32 34 35 37 38 40 41 41 41 41 41 41 40 40 39 38 37 37 36 35 35 34 32 31 30 29 27 24 22 21 20 19 18 17 16 15 15 14 13 13 13 13 14
13 13 14 15 16 17 16 15 17 18 18 21 23 22 22 22 21 18 14 14 18 22 20 17 18 19 20 21 22 23 23 24 23 22 21 20 20 20 19 19 18 18 18 18 18 18 19 20 21 22 23 24 25 26 28 29 30 32 33 34 34 35 35 35 35 34 34 34 33 33 32 31 30 29 28 28 26 25 24 23 21 20 18 17 16 15 15 14 15 15 15 16 16 15 16 16 16
13 14 15 15 16 17 17 19 21 19 18 22 24 25 27 26 25 22 15 12 15 20 21 17 17 20 21 22 23 24 27 28 27 26 24 22 22 21 21 21 20 20 19 18 18 18 19 20 20 21 22 22 23 24 25 25 26 27 28 28 29 29 29 29 29 29 29 29 28 27 26 25 24 24 23 22 22 21 20 19 18 17 16 16 16 16 16 17 17 18 18 19 18 18 17 16 15
13 14 17 17 17 17 17 20 24 22 19 22 23 27 33 32 31 27 19 14 14 16 20 19 20 23 25 25 26 26 28 29 29 29 28 26 25 24 24 24 23 22 22 21 21 20 20 20 20 21 21 22 22 23 23 24 24 25 25 25 26 26 26 26 26 26 26 25 25 23 23 22 22 21 20 20 20 19 19 19 19 20 20 20 20 20 19 19 19 19 19 18 17 17 16 16 15
Wind_Speed
103 102 99 95 92 89 85 84 87 89 89 88 89 88 85 84 84 86 83 84 85 83 84 85 83 81 75 69 64 61 64 64 64 67 68 69 72 72 70 69 68 69 69 69 70 70 70 70 69 66 65 65 64 66 67 67 68 70 71 71 68 62 59 59 61 62 63 64 64 65 65 65 65 65 64 64 64 65 66 67 66 65 64 64 64 62 60 58 57 58 59 59 61 64 65 65 64
105 104 103 100 97 95 92 87 84 87 89 87 89 91 91 87 84 85 84 85 83 81 82 82 82 83 82 79 75 69 65 63 62 62 64 65 68 70 70 69 68 69 69 70 71 71 72 71 70 68 67 68 69 70 71 71 72 73 74 72 66 62 60 61 62 64 66 66 66 66 66 67 67 67 67 66 66 66 66 66 65 64 64 65 65 65 63 61 60 60 60 60 62 65 66 67 68
105 106 105 104 101 99 98 94 87 85 89 89 89 92 95 92 87 85 83 86 86 84 84 82 82 83 83 82 81 79 75 71 68 64 63 64 66 69 69 68 68 68 69 70 71 72 73 73 71 70 70 71 71 73 74 73 74 76 75 71 65 61 61 62 63 65 67 69 69 68 68 68 68 69 69 69 67 67 67 66 65 65 66 67 67 68 67 66 64 63 63 63 64 66 67 69 70
102 105 107 107 106 104 102 100 94 87 87 89 89 91 96 96 91 87 85 87 87 86 87 88 88 88 87 85 83 82 81 79 76 73 70 68 67 67 68 68 69 70 71 71 72 73 74 75 73 72 72 73 73 74 75 75 75 76 74 70 65 63 62 62 63 65 67 69 71 71 71 70 68 69 69 69 67 66 67 66 65 65 67 69 69 70 70 69 68 67 68 67 66 67 69 70 72
98 101 104 106 107 109 108 105 101 92 87 88 89 90 94 96 93 91 91 90 88 86 86 88 90 92 92 90 89 86 85 83 81 79 77 75 73 70 68 67 68 70 71 72 73 74 75 76 75 74 74 74 75 75 75 76 75 74 71 68 65 65 65 65 66 67 68 69 72 73 74 73 71 70 69 68 67 66 67 67 66 66 67 69 70 71 71 70 68 68 70 71 70 70 70 72 74
96 98 100 101 103 106 108 107 105 98 92 90 90 92 94 94 91 91 94 93 91 90 88 87 86 88 90 92 92 89 89 88 85 84 83 81 79 76 73 71 69 69 70 72 73 75 77 77 77 76 77 76 76 76 75 75 74 72 70 68 67 69 70 72 73 73 73 72 72 74 76 76 74 73 71 70 69 68 67 67 68 69 69 69 70 71 71 70 70 70 71 73 73 73 74 75 77
93 96 98 99 100 101 103 104 105 101 97 94 92 94 96 94 91 92 93 94 94 93 93 92 90 87 85 88 90 90 90 89 87 87 86 86 84 82 80 79 77 75 74 73 74 75 77 78 79 79 79 78 77 76 75 74 72 71 71 71 72 73 74 76 77 78 77 75 74 75 76 77 76 75 74 73 73 73 71 69 69 70 71 70 70 71 71 71 71 73 73 74 76 78 79 78 78
91 94 97 98 99 99 99 100 102 102 100 98 95 95 96 94 93 93 93 93 95 94 93 93 94 93 88 87 88 89 90 90 90 90 88 87 87 86 84 83 82 81 80 80 79 79 79 79 80 80 79 77 77 77 76 75 74 75 75 75 74 74 75 76 79 81 80 79 78 77 77 78 77 77 77 76 77 77 75 72 71 71 72 72 72 71 72 72 73 74 76 76 77 80 80 79 77
90 93 96 97 98 98 98 99 100 102 102 100 98 97 96 93 94 96 94 94 94 94 94 93 93 94 93 91 90 90 90 91 93 94 93 91 89 88 88 88 87 86 87 87 86 86 86 85 84 82 80 78 77 77 77 77 77 78 77 76 76 78 79 81 83 84 84 84 83 81 81 81 80 79 78 78 79 80 79 77 75 74 74 74 74 74 75 76 77 76 77 77 78 79 78 78 76
90 93 96 97 98 97 97 97 99 101 101 102 100 98 96 93 95 97 96 96 95 95 94 94 93 93 94 94 94 93 92 93 94 95 96 96 94 92 92 92 91 92 93 93 92 90 91 91 90 87 85 84 82 81 81 81 81 81 80 79 80 83 85 86 87 87 87 87 87 86 85 85 84 82 81 81 81 82 81 81 79 78 77 76 76 77 77 78 79 78 78 78 78 78 78 77 76
90 91 95 97 99 99 98 97 98 99 100 102 101 99 95 94 97 96 96 96 96 97 96 96 95 93 93 93 94 96 95 95 95 96 97 97 97 96 96 96 95 96 96 95 93 92 93 94 94 92 89 89 88 88 88 87 86 85 84 84 85 87 89 90 90 90 89 89 90 90 89 88 87 86 85 85 84 83 83 83 82 81 80 79 78 78 79 79 80 80 80 79 79 80 79 78 78
89 90 92 95 99 100 100 99 98 99 100 101 101 99 96 96 98 96 95 96 95 97 98 98 98 97 95 94 95 96 95 94 95 96 96 96 97 97 98 98 97 95 93 92 92 92 92 92 95 97 96 95 94 94 94 93 91 90 89 89 90 92 93 94 93 93 93 92 93 92 91 89 88 88 87 86 86 84 84 84 84 83 83 82 81 81 81 81 81 82 82 82 83 83 82 82 81
89 89 90 92 97 100 101 100 100 100 101 102 102 100 97 97 99 97 97 97 96 97 99 100 100 100 98 97 99 98 96 95 94 93 93 94 95 95 95 96 96 95 93 93 92 92 91 91 93 97 99 100 100 100 100 99 98 96 96 95 95 96 96 96 96 96 95 95 94 93 91 89 89 88 87 86 85 85 85 85 85 85 85 85 84 83 83 83 84 85 85 86 86 86 86 86 85
89 90 89 89 93 98 101 102 101 101 101 103 103 100 98 98 99 98 98 98 98 98 100 101 99 99 99 100 101 102 100 98 97 95 93 93 94 94 94 94 94 95 94 94 94 93 93 92 92 94 96 99 99 100 100 100 99 99 98 98 98 98 98 98 97 97 96 95 94 92 90 89 89 88 86 85 85 85 86 87 87 87 88 87 87 86 86 86 87 87 88 89 89 90 90 90 89
91 90 88 87 90 94 98 102 103 102 103 103 102 100 99 99 99 99 99 99 100 101 101 100 99 98 98 99 102 104 103 100 100 100 98 97 96 95 95 94 93 93 94 94 94 94 95 95 95 95 95 96 96 96 96 96 96 97 97 97 97 97 97 96 95 94 94 92 91 90 89 88 88 88 87 87 87 87 87 88 89 90 90 90 90 89 89 89 89 90 91 91 92 93 94 94 93
93 92 89 87 88 91 95 100 104 104 105 105 102 101 100 100 101 102 102 102 102 103 103 101 100 99 97 98 100 103 104 104 104 104 103 102 100 97 95 95 93 93 94 94 94 94 96 97 98 98 98 98 97 96 95 95 95 95 95 96 95 94 93 93 93 92 91 90 89 89 88 89 89 89 89 89 89 89 89 90 91 92 92 92 92 91 91 92 92 93 94 95 96 97 98 97 96
94 94 92 88 88 89 92 96 101 104 107 107 103 100 100 101 103 104 104 104 104 104 103 102 102 101 100 100 100 101 103 103 104 104 105 106 105 103 100 99 97 95 95 94 95 95 97 98 100 101 101 102 101 99 98 97 97 96 96 96 95 94 93 92 92 92 92 91 91 91 91 92 92 92 92 92 91 91 91 92 92 93 94 94 93 93 93 94 95 96 97 98 99 100 100 98 97
95 95 94 91 90 90 91 93 96 101 105 108 106 102 100 101 104 104 104 104 104 104 104 104 104 104 103 103 102 102 102 102 102 102 103 105 107 106 104 102 101 100 99 99 98 98 98 99 101 102 103 104 104 103 102 100 100 99 98 97 96 95 94 93 93 93 94 94 93 93 94 94 95 96 97 97 96 96 95 95 95 96 96 96 96 96 96 97 98 99 99 100 100 100 99 98 97
95 95 95 93 93 93 93 93 94 96 99 103 105 105 104 103 103 102 104 106 105 105 106 106 107 106 105 105 104 104 104 104 104 103 103 104 104 104 104 102 101 102 102 103 102 102 102 102 103 104 105 105 106 106 105 104 103 102 101 100 98 97 95 94 94 95 95 96 96 96 97 98 98 99 101 101 101 101 101 101 101 101 100 100 100 100 100 100 100 100 100 99 98 98 98 97 96
97 96 95 96 98 98 97 96 97 97 96 96 99 102 105 105 105 103 103 105 105 105 107 107 107 108 108 107 107 106 106 106 106 106 105 105 104 104 104 104 104 104 104 104 104 104 104 105 105 106 107 107 107 107 106 106 105 104 103 102 100 99 99 99 98 99 99 100 101 101 102 102 103 103 104 105 105 105 104 104 104 104 104 104 103 103 102 101 101 100 99 98 98 98 98 97 97
100 98 97 98 101 102 101 101 101 101 99 97 97 99 100 102 105 105 105 107 106 104 105 105 106 107 108 108 108 108 108 108 108 108 107 107 107 106 106 106 107 107 108 108 108 109 108 105 102 101 104 107 108 108 109 109 109 108 108 108 108 108 107 106 106 106 106 106 106 106 106 106 106 107 107 107 106 106 106 106 106 106 105 105 104 103 103 102 101 100 99 99 99 98 98 98 98
101 101 100 101 103 103 104 105 104 104 102 101 102 101 100 99 101 102 105 108 108 106 106 106 107 106 107 108 108 109 109 110 110 110 110 109 109 110 110 110 110 110 111 112 112 112 112 110 105 101 100 103 105 108 110 112 113 114 115 116 116 115 113 111 110 109 109 108 108 108 108 109 110 111 110 108 108 107 107 107 107 107 107 106 105 105 104 103 102 102 102 101 101 100 100 100 100
101 101 102 104 105 105 106 106 106 105 104 105 106 105 103 102 101 101 103 105 106 107 108 109 109 108 109 110 110 110 110 110 110 111 111 111 111 112 112 113 113 114 114 114 114 113 111 111 110 107 105 104 105 107 109 110 112 113 114 115 116 116 115 115 114 113 112 112 112 111 112 113 113 113 111 110 111 111 111 111 111 110 110 109 108 108 107 106 105 106 105 105 104 103 102 102 103
101 100 102 105 106 106 106 108 107 106 106 108 109 108 107 107 106 104 103 104 105 106 107 109 110 110 111 113 113 113 113 112 112 113 113 113 113 114 114 115 116 116 116 115 113 112 111 111 111 111 110 110 110 110 111 111 112 112 112 111 112 113 114 115 115 115 115 115 115 115 115 115 114 113 112 114 115 115 115 115 115 114 113 113 112 111 109 108 108 108 108 107 107 106 105 105 105
102 102 103 104 105 105 106 108 108 106 108 110 111 109 109 109 109 106 105 106 106 105 106 107 108 109 110 113 115 115 116 116 116 116 116 116 116 116 116 116 116 116 116 114 112 112 112 112 113 113 113 113 114 113 113 114 115 115 115 115 114 113 113 114 114 115 115 115 116 116 116 115 114 114 116 118 118 118 117 116 116 117 116 116 115 114 113 112 111 110 110 109 109 108 108 107 107
99 103 103 103 104 104 106 107 108 108 109 111 111 110 109 110 109 106 106 108 108 108 109 109 108 108 108 109 111 113 114 114 115 115 116 116 116 116 116 115 115 115 115 115 114 114 114 115 115 116 117 117 116 116 115 115 115 116 117 118 118 117 116 115 115 115 116 116 116 116 116 116 116 117 119 120 120 119 117 117 117 117 117 117 116 116 115 114 113 112 112 111 111 110 110 110 109
96 99 99 101 104 105 106 107 107 109 111 112 112 112 111 110 108 105 107 111 112 112 112 111 110 108 108 109 110 111 112 112 112 113 113 114 115 115 116 116 116 116 116 116 116 117 116 116 117 118 119 119 118 117 117 116 116 116 116 117 118 119 119 118 118 118 118 118 118 118 118 118 119 120 121 120 118 117 116 116 116 116 116 116 116 116 116 116 115 114 114 113 113 112 112 112 111
92 95 96 99 102 104 106 107 107 109 110 112 114 114 113 112 109 107 110 113 114 114 113 113 112 111 110 111 112 112 112 113 112 112 112 113 113 114 115 116 117 118 118 118 119 119 119 119 119 120 121 121 120 119 118 118 117 117 117 117 118 119 120 120 120 120 119 120 120 120 120 120 121 121 120 118 117 116 116 116 116 116 116 116 116 117 117 117 116 116 115 114 114 114 113 113 113
85 90 94 97 99 101 104 106 108 109 110 112 114 113 111 112 111 111 113 115 114 114 114 115 115 114 113 113 113 113 114 113 113 113 113 113 113 113 113 114 115 117 119 120 121 121 121 122 121 122 122 122 121 121 120 119 119 119 119 119 120 120 120 121 121 122 122 122 122 121 121 121 121 120 119 118 117 117 117 116 117 117 117 117 117 117 118 117 117 117 116 116 115 115 115 115 115
78 83 89 92 94 96 100 105 107 108 109 112 114 112 109 111 114 115 115 116 115 116 117 116 116 116 115 114 114 114 115 115 114 115 114 114 113 113 113 113 114 115 116 118 119 121 121 121 121 122 123 122 122 122 122 121 121 121 121 121 122 122 122 123 123 123 124 124 123 123 122 121 120 120 119 119 118 117 117 117 117 117 117 117 117 118 118 118 117 117 117 117 116 116 116 116 116
75 80 83 85 88 91 96 103 105 107 110 110 111 110 106 108 115 116 115 116 117 117 117 116 115 116 116 115 114 115 115 115 115 115 115 114 114 114 113 113 114 114 114 115 116 118 119 119 120 121 122 122 122 122 123 123 123 123 123 123 123 123 124 124 125 125 125 125 124 124 123 122 121 121 120 119 118 117 117 117 117 117 117 117 117 117 118 118 118 118 118 118 118 118 118 118 118
74 78 79 80 83 85 92 100 103 106 110 109 108 107 103 106 112 114 114 115 116 116 116 115 114 115 116 115 114 114 114 114 114 114 114 114 113 113 113 113 114 114 114 114 115 117 117 118 119 120 121 121 122 123 123 124 124 124 124 124 124 124 124 125 125 125 125 124 124 123 122 122 122 121 120 119 118 117 117 117 117 117 117 117 117 117 118 118 118 118 118 118 118 119 119 119 119
74 78 78 78 81 81 85 93 99 103 107 107 106 105 103 105 111 112 113 114 114 115 115 114 113 114 115 115 114 114 114 114 114 114 114 114 113 112 113 114 114 114 113 113 115 116 117 117 118 119 120 121 121 122 123 123 123 123 123 123 123 123 124 124 124 124 123 122 122 121 121 121 121 120 120 119 118 117 117 116 116 116 116 117 117 118 118 118 118 118 119 119 119 119 119 120 120
76 80 78 76 78 79 79 86 94 98 101 103 104 104 102 105 111 112 112 113 113 113 113 113 112 113 115 115 115 115 115 114 114 115 115 114 113 113 113 114 113 113 113 113 114 115 116 117 118 118 119 119 119 120 121 121 121 121 121 122 122 121 121 122 121 121 120 120 120 119 119 120 120 120 119 118 118 117 117 117 117 117 117 117 118 118 118 119 119 119 119 119 120 120 120 120 120
77 78 76 73 75 78 78 83 90 93 95 97 99 100 99 102 108 112 112 112 113 113 113 113 113 113 114 115 116 117 116 115 115 116 116 115 113 113 113 113 113 113 113 113 114 116 116 116 117 118 118 118 118 119 119 119 119 119 120 120 119 119 119 119 118 118 118 118 119 119 119 119 119 119 119 119 118 118 118 118 118 118 118 118 119 119 119 119 119 119 119 119 120 120 120 120 120
75 75 75 74 75 77 78 82 87 90 92 92 93 95 95 96 101 107 110 111 112 112 113 114 115 114 114 115 118 119 118 116 116 116 115 114 114 114 114 114 114 114 113 114 115 116 116 116 117 117 118 118 118 118 118 118 118 119 119 118 118 118 117 117 117 117 118 118 119 120 120 120 119 119 119 119 119 119 119 119 119 119 119 119 119 119 119 119 119 119 119 119 119 119 119 119 119
71 73 74 74 76 77 78 83 86 88 90 89 89 92 91 90 94 100 104 107 108 109 110 112 114 115 115 116 118 120 120 119 118 117 115 114 115 115 115 115 115 115 114 114 115 116 116 116 117 118 119 119 119 119 119 119 118 118 118 118 118 118 117 117 118 118 119 120 121 121 120 120 119 119 119 119 119 119 119 119 119 119 119 118 118 118 118 118 118 117 117 117 117 117 117 117 117
67 70 71 72 75 77 79 84 86 87 89 87 87 91 89 86 89 94 98 101 103 104 106 107 109 112 114 115 118 119 119 120 120 118 117 117 117 117 117 117 116 116 116 116 116 117 117 118 119 120 120 120 120 120 120 120 119 119 119 119 119 118 118 119 119 119 120 121 122 121 120 119 118 118 118 118 118 118 118 118 117 117 117 116 116 116 116 115 115 115 115 115 115 115 115 115 115
67 68 69 69 72 75 77 82 85 86 87 86 87 90 87 84 86 90 93 96 98 100 102 102 103 106 110 112 115 116 116 118 118 118 118 118 118 118 118 118 118 118 118 117 117 118 119 120 120 121 122 122 121 121 121 121 121 121 121 121 120 119 119 119 119 119 120 120 120 119 118 117 115 114 115 115 116 115 115 114 114 114 114 113 113 113 113 113 113 113 113 113 113 113 113 113 113
67 68 69 68 71 74 74 78 83 83 82 83 86 89 85 82 85 89 91 93 94 96 99 100 100 101 105 108 110 111 112 113 114 115 116 117 117 118 117 118 118 118 118 118 118 120 121 121 121 122 122 121 121 121 121 121 121 121 121 120 119 118 117 117 117 116 117 117 116 115 113 112 111 110 110 111 112 111 111 111 111 111 111 111 111 111 112 112 111 111 111 111 111 111 111 111 111
65 67 68 69 71 74 75 77 79 79 79 80 83 85 81 80 83 86 89 91 93 94 96 98 99 99 100 103 104 106 106 107 109 110 111 112 113 114 115 116 116 116 116 116 118 119 119 118 118 119 119 119 118 118 118 119 119 118 117 117 115 114 113 112 112 111 111 111 110 109 108 107 106 106 107 108 108 108 109 109 109 109 109 110 110 110 110 110 110 110 110 110 110 110 110 110 110
63 65 67 69 71 73 75 76 77 78 77 78 80 80 77 77 79 81 85 89 91 93 93 95 98 99 98 99 100 102 103 102 103 105 107 108 108 110 111 112 113 113 113 113 115 115 114 114 113 114 114 114 114 113 113 114 114 112 111 110 109 107 106 107 107 106 106 106 105 104 104 103 103 104 105 106 106 107 107 108 108 108 108 108 108 108 109 109 109 109 109 109 109 109 109 109 110
61 63 66 68 69 71 72 74 75 75 75 76 77 78 76 74 75 78 82 85 87 89 89 91 95 96 94 94 96 100 101 100 100 101 103 104 104 106 107 108 109 109 109 109 109 109 109 108 108 109 109 109 108 107 107 107 107 106 105 104 103 102 101 102 104 104 103 103 103 102 102 102 102 104 105 105 105 105 106 106 107 107 107 108 108 108 108 108 108 108 109 109 109 109 109 109 110
59 61 65 67 67 68 70 72 73 72 72 72 73 78 79 72 70 77 82 83 85 87 87 88 89 90 91 91 92 94 96 97 97 97 99 100 101 102 103 104 105 105 105 105 104 104 104 104 104 104 104 103 103 102 101 102 102 101 101 100 100 99 100 101 102 102 102 102 102 102 102 102 102 104 104 104 104 104 105 106 106 107 107 107 107 107 107 108 108 108 109 109 109 109 109 109 110
58 61 64 66 66 66 68 69 70 71 69 67 70 78 79 69 65 72 80 83 85 87 86 84 83 87 91 92 91 91 92 93 93 94 95 96 97 98 99 100 100 101 101 101 100 100 100 100 100 100 100 99 99 99 99 99 100 100 99 99 99 100 100 101 102 102 102 102 102 102 102 102 103 104 104 104 105 105 105 106 106 107 107 107 107 107 108 108 109 109 109 109 109 109 110 110 110
58 60 62 64 64 66 67 67 67 69 66 64 71 77 76 67 64 70 77 82 83 83 83 81 81 84 88 91 92 91 91 91 91 92 93 94 95 96 96 97 97 98 98 98 97 97 97 97 97 97 97 98 98 98 98 99 100 100 99 99 100 101 101 102 102 102 102 102 103 103 103 103 103 104 105 105 106 106 106 106 106 107 107 108 108 109 109 109 109 110 110 111 111 111 111 111 111
57 59 61 62 63 64 66 66 66 66 64 64 70 74 74 68 66 70 75 77 78 78 78 79 81 82 84 87 89 89 90 90 90 90 92 93 94 96 96 96 97 97 97 97 96 96 96 96 96 96 97 98 98 98 99 99 100 100 100 100 101 101 102 102 102 102 103 103 103 104 104 104 104 104 105 106 106 107 107 107 107 108 108 109 109 110 110 110 110 111 111 112 112 112 112 113 113
57 58 60 61 61 63 63 64 65 64 61 64 67 69 71 69 67 70 73 73 74 73 75 76 78 81 82 83 85 85 86 87 89 89 89 91 92 94 95 96 97 97 97 97 97 97 97 97 97 97 98 99 99 99 99 100 101 101 101 101 101 102 103 103 103 103 104 104 105 105 106 106 105 105 106 107 108 109 108 108 108 109 109 109 110 110 111 111 111 111 112 113 113 113 114 114 114
56 58 59 59 59 61 62 62 63 61 60 63 65 65 68 69 68 68 69 71 71 70 71 73 75 78 80 81 82 82 83 84 85 86 86 87 89 91 92 93 95 96 96 97 97 97 97 98 98 98 99 100 100 100 101 101 102 103 103 103 103 103 104 105 105 105 105 105 106 107 108 107 107 106 107 108 110 110 110 109 109 110 110 111 111 111 112 112 113 113 114 114 114 115 115 115 115
56 58 58 58 59 60 60 61 61 60 60 61 62 63 66 68 68 65 65 68 69 67 68 69 72 75 77 79 79 80 81 82 82 83 84 85 86 87 89 90 92 93 94 95 95 96 96 97 98 99 99 100 101 102 102 103 104 105 105 105 105 105 106 107 107 108 108 108 108 109 109 109 109 108 109 110 111 111 111 111 111 111 112 112 112 112 113 113 114 114 114 114 114 115 115 115 115
55 58 58 57 60 60 58 58 59 59 60 59 59 62 63 66 67 65 64 65 66 66 66 66 68 71 74 76 77 77 78 79 80 81 82 83 84 85 87 88 89 90 91 92 92 93 94 95 97 98 99 100 101 102 103 104 105 106 106 107 107 107 108 109 109 110 110 110 110 110 110 111 111 111 111 111 112 112 112 112 112 112 112 112 112 112 112 112 113 113 113 113 113 113 113 113 113
53 56 58 59 60 60 57 57 59 59 58 57 60 61 61 63 65 64 63 62 63 66 66 66 66 67 70 73 74 75 75 76 77 78 79 81 82 83 85 86 87 87 88 89 90 91 92 93 94 96 97 99 100 101 103 104 105 106 107 108 108 109 109 110 110 111 111 111 111 110 110 111 111 112 112 112 112 112 112 112 112 111 111 111 111 111 111 111 111 111 111 111 111 111 111 112 112
52 53 56 59 60 60 58 57 59 59 55 55 60 61 60 61 63 63 62 59 60 65 66 66 66 66 67 69 71 73 73 74 74 75 76 78 79 80 81 83 84 85 86 87 88 89 90 91 92 93 95 97 98 100 101 103 104 105 107 108 108 109 109 110 110 111 111 111 111 110 110 111 111 112 112 112 111 111 111 111 111 111 110 109 109 109 109 109 109 109 110 110 110 110 110 111 111
54 53 53 57 59 60 60 58 57 57 54 53 58 61 60 61 62 62 61 58 58 63 65 65 65 65 65 67 68 70 71 72 73 74 74 75 76 77 79 80 81 83 84 85 86 87 88 89 90 92 93 95 96 97 98 100 101 103 104 106 107 108 109 109 109 110 110 110 110 110 109 109 109 110 110 110 109 109 109 109 109 109 109 108 108 107 108 108 108 109 109 110 110 109 109 109 109
55 54 53 55 57 58 61 60 56 56 54 53 56 59 59 61 61 61 60 58 58 62 63 61 62 63 63 64 66 68 69 71 71 72 73 73 74 75 77 78 79 80 82 83 84 85 86 87 89 90 91 92 94 95 96 97 99 100 101 103 104 105 106 107 107 107 107 107 108 108 108 107 107 107 107 107 108 107 107 107 108 108 108 108 108 107 107 107 107 108 108 109 108 108 107 107 107
56 55 55 55 55 58 60 58 57 56 54 53 55 57 58 59 61 62 63 60 57 59 61 59 58 60 61 62 64 65 66 68 69 70 71 72 73 74 75 76 77 79 80 81 82 83 84 86 87 88 89 90 92 93 94 95 97 98 99 101 102 103 103 104 105 105 105 105 106 106 106 106 106 106 106 106 106 107 107 107 107 107 107 107 107 106 106 106 105 106 106 107 107 107 106 106 107
56 56 57 56 55 57 58 56 57 59 54 52 54 55 55 57 60 64 67 64 57 56 60 59 56 57 60 61 62 63 63 64 66 67 69 70 72 73 74 75 76 77 78 79 80 81 82 84 85 86 87 88 89 90 92 93 94 96 97 98 99 100 101 102 102 103 103 104 104 104 104 104 104 104 105 105 105 105 105 105 105 105 106 106 105 105 105 105 104 104 105 105 106 106 106 106 106
57 55 56 58 57 57 57 55 57 60 56 54 54 51 51 56 61 66 70 68 60 54 56 58 56 56 59 60 60 60 61 63 64 66 67 68 70 72 73 74 74 75 76 76 77 78 79 81 82 83 85 86 87 89 90 91 92 93 94 96 97 98 99 99 100 100 101 102 102 103 103 103 102 103 103 103 103 104 103 103 103 104 104 104 104 104 104 104 103 103 103 104 105 105 105 106 106
Wind_Direction
228 230 231 231 231 233 234 235 238 238 235 234 233 233 233 233 234 234 235 237 239 239 240 241 242 242 242 244 245 246 248 250 249 248 247 246 248 250 251 251 251 253 254 255 256 256 257 259 261 261 257 255 255 254 255 255 256 258 261 265 268 267 263 262 263 263 263 263 263 264 265 266 268 269 269 270 270 270 270 271 272 271 268 266 265 267 269 271 273 273 272 272 272 273 273 273 273
227 229 231 232 232 234 235 234 236 241 240 236 234 234 234 234 235 235 235 237 239 239 241 241 243 243 243 244 245 246 246 247 247 246 246 247 249 251 253 253 253 254 255 256 258 258 258 258 259 260 258 256 255 256 257 258 260 261 264 267 268 265 261 260 260 261 261 262 262 263 263 265 267 267 268 268 268 268 269 270 270 269 268 266 265 266 267 270 271 271 271 271 270 271 272 272 273
227 228 230 231 233 234 236 236 234 238 242 241 236 234 235 235 236 238 237 238 239 240 242 244 245 246 246 245 246 248 249 248 246 246 247 249 251 253 255 256 256 257 258 259 260 260 260 259 258 258 258 258 257 257 259 260 262 263 265 267 266 263 260 259 259 261 262 263 264 265 265 266 266 266 266 266 266 266 266 267 268 267 267 267 267 267 267 268 270 270 270 269 269 269 270 271 272
228 228 229 231 232 234 235 237 236 235 239 242 240 235 235 235 235 238 239 240 240 241 244 245 247 248 248 247 247 248 250 250 248 247 248 250 253 255 257 258 259 260 261 261 262 262 260 260 259 257 256 258 259 259 261 262 262 263 264 264 264 263 260 260 262 263 265 266 268 268 268 268 267 266 265 265 265 265 265 265 266 266 266 267 267 267 268 268 270 271 270 270 269 269 269 270 271
228 229 230 231 232 233 234 236 237 236 236 239 241 238 235 236 236 238 240 242 242 243 245 246 247 248 248 249 249 249 249 249 249 247 247 249 251 253 255 257 258 259 259 260 261 260 259 258 258 257 256 257 259 261 262 262 262 262 262 262 262 261 261 262 264 266 268 268 269 268 269 270 270 268 265 264 264 266 266 266 265 265 265 266 266 267 268 269 269 270 270 269 269 268 269 269 271
229 229 230 231 232 233 234 235 237 236 236 237 239 240 238 236 237 239 241 242 243 244 245 245 246 247 247 248 250 250 248 248 249 248 248 248 249 250 251 252 254 256 258 259 260 260 259 258 256 256 257 257 258 260 261 261 261 261 262 263 262 261 262 264 266 269 271 271 270 268 268 269 270 269 266 264 264 266 268 267 265 265 265 265 266 266 267 268 269 269 269 268 268 268 269 270 271
230 230 230 231 232 232 233 235 236 236 236 236 238 240 240 238 237 238 241 242 243 245 246 246 245 246 247 248 249 249 248 247 248 248 249 249 250 250 250 251 252 254 257 259 260 261 261 260 258 256 256 257 258 259 261 260 259 260 262 264 264 264 265 266 269 271 272 273 272 270 268 268 269 268 267 265 265 267 268 268 266 265 264 264 265 266 266 267 268 269 269 268 268 268 270 272 272
231 230 230 231 232 233 233 234 236 237 237 237 238 240 241 241 240 239 240 241 243 245 245 246 246 245 246 247 248 248 248 248 248 248 249 249 249 250 251 252 253 255 258 259 259 260 260 260 260 259 258 258 259 259 260 259 259 261 263 264 264 264 265 267 270 272 273 274 274 273 270 269 268 268 267 266 267 268 268 268 268 266 265 264 264 265 265 265 266 267 267 267 267 268 271 272 273
231 231 231 231 232 232 234 234 236 237 238 238 238 239 241 242 242 242 241 240 241 243 244 245 246 246 246 246 247 247 248 248 248 249 250 250 250 250 251 252 254 256 259 260 260 258 258 258 258 259 259 260 261 259 259 259 260 261 262 262 262 263 265 267 270 272 273 273 274 274 272 270 269 268 268 268 269 269 269 269 269 268 267 265 264 264 264 264 265 266 267 267 267 268 270 271 272
232 231 231 231 232 232 233 235 236 237 239 239 239 240 240 241 242 243 243 242 241 241 243 244 245 247 247 248 248 247 247 248 249 249 250 251 251 252 253 254 255 257 259 260 260 259 257 256 256 257 258 260 261 260 261 262 263 263 262 262 262 264 266 267 269 270 271 272 273 274 274 271 270 270 270 270 270 270 269 270 270 270 269 268 267 266 265 266 267 267 267 267 268 268 270 271 272
232 232 231 232 232 232 233 235 236 237 239 239 240 240 240 241 241 242 243 244 242 241 243 244 245 246 247 249 249 249 249 249 250 250 251 252 253 254 255 256 257 258 259 260 260 259 258 257 255 255 256 258 260 261 262 263 263 263 263 263 263 265 266 268 269 270 271 272 272 274 274 271 270 271 271 271 271 270 269 270 271 270 270 270 269 268 268 268 268 269 269 269 269 270 271 271 272
233 233 233 232 233 233 233 234 236 237 239 240 240 241 241 241 241 241 242 243 243 243 244 245 246 246 246 247 248 248 249 251 251 252 252 253 254 256 257 257 258 258 259 261 262 261 259 258 255 254 255 256 258 260 261 262 262 263 263 263 264 265 267 268 269 270 271 272 273 274 273 270 269 270 271 272 271 270 269 270 270 270 271 271 271 271 270 270 271 271 272 272 272 272 273 273 273
234 234 234 233 233 234 234 235 236 237 238 239 240 240 241 241 241 242 242 243 244 244 245 246 247 248 247 245 246 246 247 249 251 252 253 254 255 256 258 258 257 259 261 263 264 263 261 260 257 256 255 256 257 258 260 261 262 263 263 264 265 266 267 268 270 271 272 273 273 273 272 270 269 270 271 272 271 269 268 269 270 270 271 272 272 272 272 272 272 273 273 274 274 274 275 275 275
234 235 235 235 235 235 235 236 237 238 238 239 240 240 241 242 242 242 243 243 244 245 246 248 248 248 247 246 245 246 246 247 249 251 252 254 255 257 258 258 258 258 260 262 263 264 263 263 261 260 259 258 258 259 260 262 263 263 264 264 265 266 267 268 270 271 272 273 272 272 271 270 270 271 271 271 270 269 269 269 270 271 272 273 273 273 273 273 273 274 274 275 275 276 276 276 276
234 236 236 236 236 236 236 237 238 239 239 240 240 241 241 242 242 242 243 244 244 245 246 248 248 248 248 247 246 246 247 248 249 250 251 253 255 256 257 257 257 257 257 258 260 261 262 263 264 263 263 263 262 262 263 263 264 265 265 266 266 267 268 269 270 271 272 272 271 271 270 270 270 271 272 272 271 270 270 270 270 271 272 273 274 274 274 274 274 275 275 276 276 277 277 277 277
235 236 236 237 237 237 237 237 238 238 240 240 241 242 242 242 243 243 243 244 244 245 246 246 247 248 248 248 248 248 248 248 249 251 251 253 254 256 256 255 255 254 255 255 256 258 259 261 263 264 265 265 266 265 265 265 266 267 267 267 268 268 269 270 270 271 271 271 271 270 270 270 271 271 272 273 273 272 272 271 271 272 273 274 274 274 274 274 275 276 276 277 278 278 277 277 277
236 236 236 237 237 237 238 238 238 238 239 240 240 241 243 243 243 244 244 244 244 244 245 246 246 248 248 248 249 249 249 248 249 250 251 252 252 254 255 254 254 253 254 255 256 256 258 259 261 263 264 265 266 266 266 266 267 268 268 268 268 269 269 270 270 270 270 270 270 270 270 270 271 272 273 273 273 273 273 273 273 273 274 274 274 274 274 275 276 276 277 277 277 277 277 277 277
237 237 236 236 237 237 238 239 239 239 239 240 240 240 241 242 242 243 244 243 244 244 244 245 246 247 248 249 249 249 249 249 250 251 252 252 252 253 254 254 253 253 254 255 256 257 258 258 259 260 262 263 264 265 265 266 267 267 268 267 267 268 268 269 269 269 270 270 270 270 270 271 272 273 273 274 274 273 274 274 274 274 274 274 274 274 275 275 276 276 276 276 276 276 276 276 276
238 238 237 236 237 238 238 240 241 241 240 240 240 240 240 242 242 242 244 244 243 244 245 245 246 247 248 248 249 249 249 250 251 252 252 253 253 254 254 254 254 254 254 256 256 257 258 259 259 260 260 261 262 263 264 265 266 266 266 266 266 266 267 268 268 268 269 269 270 270 271 271 272 273 274 274 274 273 273 273 273 274 274 274 274 275 275 275 275 275 275 275 275 275 275 275 275
239 239 238 237 237 238 239 241 242 243 242 242 242 241 241 242 242 242 244 245 244 244 245 246 246 247 247 247 248 249 249 250 251 252 253 252 253 254 254 255 255 256 256 257 258 258 259 259 260 260 259 260 261 261 262 263 264 264 265 265 265 265 266 267 267 268 268 269 270 270 271 272 272 273 273 274 274 273 273 273 273 273 273 274 274 274 274 275 275 275 275 275 275 275 275 274 274
240 240 239 239 239 239 240 242 243 243 243 243 244 244 243 242 243 243 244 246 246 245 246 246 246 247 247 247 248 248 249 250 251 252 252 253 253 253 254 255 255 256 257 258 259 260 261 259 259 260 259 259 260 260 261 262 263 263 264 264 264 265 266 267 267 267 268 268 269 270 271 271 272 273 273 273 273 274 274 273 273 273 274 274 274 274 274 275 275 275 275 275 275 275 275 275 274
241 241 241 241 241 241 242 242 243 243 243 244 245 245 245 244 244 245 245 246 247 246 246 247 247 248 248 248 248 248 249 250 251 251 252 252 253 253 254 254 255 256 256 258 260 260 261 259 258 260 260 260 260 260 261 262 263 263 264 265 265 265 266 266 266 267 267 268 268 269 269 270 271 273 273 274 274 275 275 275 275 274 274 274 275 275 276 276 276 277 277 277 277 277 277 276 276
243 243 243 243 243 243 243 243 243 244 244 244 245 245 245 245 246 246 246 247 247 247 247 247 247 248 249 249 249 248 249 250 251 251 252 252 253 253 254 254 255 256 257 259 260 260 260 259 258 259 260 261 261 261 261 262 263 264 264 265 265 265 265 265 265 266 266 267 267 267 268 269 270 271 272 273 274 275 275 275 275 275 275 275 275 275 276 276 277 277 277 277 277 277 277 277 277
245 245 245 244 244 244 244 245 245 244 245 245 245 246 246 246 246 246 247 247 248 248 248 248 248 248 248 250 250 250 250 251 252 252 253 253 253 254 254 255 255 257 258 259 259 259 259 259 258 260 260 261 262 263 263 263 264 264 264 265 265 265 265 265 265 266 266 266 266 267 267 267 268 269 270 272 273 274 274 274 274 274 274 274 274 275 275 275 276 276 276 276 276 277 277 276 276
246 246 245 245 245 245 245 245 246 245 245 246 246 246 246 247 247 247 247 247 248 248 249 249 249 249 249 249 251 251 251 252 252 253 254 254 254 255 255 255 256 257 258 258 259 259 258 258 259 259 260 261 261 262 264 264 264 264 265 265 265 265 265 265 265 265 265 266 266 266 266 267 267 268 269 271 273 273 273 272 273 273 273 273 273 274 274 275 275 275 275 275 275 275 275 275 275
245 245 244 245 245 245 245 245 246 246 245 246 247 247 247 247 247 247 247 248 249 249 249 250 250 250 250 250 251 252 253 253 253 254 254 255 255 256 256 256 257 257 257 258 258 258 258 258 258 259 259 260 261 262 263 264 264 264 264 264 264 264 265 265 265 265 265 266 266 266 266 267 268 268 270 272 272 272 271 271 272 272 272 272 272 273 273 274 275 275 275 275 274 275 275 274 274
246 245 244 244 244 244 245 245 245 246 246 246 246 247 247 247 247 247 248 249 249 249 249 251 251 251 251 252 252 252 253 254 254 255 255 255 256 256 256 256 257 257 257 258 258 259 259 259 259 259 260 261 262 263 264 264 264 264 265 264 264 264 264 264 265 265 265 265 266 266 267 268 269 270 272 272 272 271 271 271 271 272 272 272 272 272 273 274 274 274 274 274 274 274 274 274 274
247 246 244 243 243 244 244 245 245 245 247 247 246 246 247 248 248 248 248 249 250 250 250 251 253 253 252 252 252 253 254 254 255 255 256 256 256 256 256 257 257 257 257 257 258 259 259 260 260 261 262 263 264 264 264 264 264 265 265 265 265 264 264 264 265 265 266 266 266 267 268 269 270 271 272 272 272 272 271 272 272 272 272 272 272 272 273 273 273 273 273 273 273 273 273 273 273
249 248 246 244 243 244 245 245 245 245 246 247 247 246 247 248 248 248 248 249 250 251 251 252 253 253 253 253 253 253 254 255 255 255 256 256 256 257 257 257 257 257 257 257 258 259 259 260 260 261 262 263 264 264 264 265 265 265 265 265 265 265 265 265 266 266 266 267 268 268 269 270 271 271 271 271 271 271 272 272 272 272 272 272 272 272 273 273 273 273 273 273 273 273 273 273 273
250 249 248 247 245 245 245 246 246 246 246 247 248 247 246 248 248 248 249 250 250 251 251 252 253 254 254 253 254 254 255 255 255 255 256 256 256 257 257 257 257 257 257 258 258 259 259 260 261 261 262 263 263 264 264 265 265 265 265 265 265 266 266 266 267 267 268 268 269 270 270 271 271 271 271 271 271 272 272 272 272 272 272 272 272 272 272 273 273 273 273 273 273 273 273 273 273
250 250 250 249 248 246 246 247 247 247 246 246 247 247 246 247 248 248 248 250 251 251 251 252 253 254 254 254 254 255 255 256 256 256 256 256 257 257 257 257 258 258 258 258 259 259 260 260 261 261 262 263 263 264 264 265 265 265 265 266 266 266 267 267 267 268 268 269 270 270 271 271 271 271 271 271 271 271 271 271 272 272 272 272 272 272 272 272 273 273 273 273 273 273 273 273 273
250 251 251 251 250 248 247 248 248 248 248 246 247 248 247 247 248 249 249 249 250 251 252 252 252 253 254 255 255 255 255 256 256 256 257 257 257 257 257 257 257 258 258 259 259 260 260 261 261 261 262 262 263 263 264 264 265 265 266 266 267 267 267 268 268 268 269 269 270 271 271 271 271 271 271 271 271 271 271 271 271 272 272 272 272 272 272 272 273 273 273 273 273 273 273 273 273
252 251 250 250 250 248 248 250 250 250 250 249 248 248 247 248 248 249 249 250 250 250 251 252 253 254 254 255 255 256 256 256 256 256 256 257 257 257 257 257 258 258 258 259 259 260 260 261 261 261 262 262 263 263 264 264 265 266 266 267 267 267 268 268 268 269 269 270 270 271 271 271 271 271 271 271 272 272 272 272 272 272 272 272 272 272 272 272 272 272 272 272 272 272 272 272 272
251 251 249 248 250 250 249 250 251 251 251 251 250 249 247 248 249 250 250 251 251 251 251 252 253 254 255 255 255 255 256 256 256 257 257 257 257 257 257 258 258 258 259 259 260 260 261 261 261 262 262 263 263 263 264 264 265 265 266 266 267 267 268 268 269 269 270 270 271 271 271 271 271 271 271 272 272 272 272 272 272 272 271 271 271 271 271 271 271 271 271 271 272 272 272 272 272
250 251 252 250 250 250 249 249 251 252 252 252 252 251 249 248 250 251 251 252 252 252 252 253 253 253 254 256 256 256 256 256 256 256 257 257 257 258 258 258 258 259 259 259 260 260 260 261 261 262 262 263 263 263 264 264 265 265 265 266 266 267 268 268 269 269 270 270 270 270 270 270 271 271 271 272 272 272 272 272 272 271 271 271 271 271 271 271 271 271 271 271 271 271 271 271 271
252 253 253 252 251 250 250 250 251 252 252 252 252 252 251 250 251 253 253 253 253 253 253 254 254 254 254 255 256 257 257 256 257 257 257 257 258 258 259 259 259 259 260 260 260 260 261 261 262 262 263 263 263 264 264 264 265 265 266 266 267 267 268 268 269 269 270 270 270 270 270 270 270 271 271 271 272 272 272 272 272 272 271 271 271 271 271 271 271 271 271 271 271 271 270 270 270
253 253 252 252 251 251 251 251 251 251 252 252 253 253 252 251 252 253 254 255 255 254 254 254 254 254 254 254 255 257 258 258 258 258 258 258 258 259 259 260 260 260 260 261 261 261 262 262 263 263 263 264 264 265 265 265 266 266 267 267 267 268 268 269 269 269 269 269 269 269 269 270 270 271 271 271 272 272 272 272 272 272 272 271 271 271 271 271 271 271 271 271 271 270 270 270 270
255 255 253 252 252 251 251 252 252 252 253 253 253 253 253 252 252 253 254 255 256 256 255 254 255 255 255 255 256 256 258 259 259 259 259 259 259 259 259 260 260 261 261 261 261 262 262 263 263 264 264 265 265 266 266 267 267 267 267 268 268 268 268 269 269 269 269 269 269 269 269 270 270 271 271 271 271 271 271 271 271 271 271 271 271 271 271 271 271 271 271 271 271 271 271 270 270
257 256 256 254 254 253 252 253 253 253 253 254 254 254 253 253 253 254 254 255 256 257 257 256 255 256 256 256 256 257 257 258 259 260 260 260 260 260 260 260 260 260 261 261 262 262 262 263 263 264 264 265 266 267 267 268 268 268 268 268 268 269 269 269 269 269 269 269 269 269 270 270 270 270 270 270 270 270 270 270 270 270 270 270 270 270 270 270 270 270 271 271 271 271 271 271 271
259 258 258 257 256 255 254 254 254 254 254 254 255 255 254 253 254 254 255 255 255 256 257 258 256 256 256 256 256 257 257 258 259 259 260 260 261 261 261 260 260 261 261 261 262 262 262 263 263 264 265 266 266 267 267 267 268 268 268 268 269 269 269 269 269 269 268 268 269 269 269 269 269 269 269 269 269 269 269 269 270 270 270 270 270 270 270 271 271 271 271 271 271 271 271 271 271
260 260 260 259 258 257 256 256 257 257 257 256 255 256 256 255 254 255 255 255 255 255 255 256 257 256 255 256 257 257 257 257 258 258 259 259 260 260 261 261 261 261 261 261 261 261 262 263 263 264 265 265 266 266 266 266 267 267 268 268 269 269 269 268 268 268 268 268 268 268 268 268 268 267 268 268 268 269 269 269 269 269 270 270 270 270 270 271 271 271 271 271 271 271 271 271 271
262 261 260 260 259 259 259 258 259 259 259 259 259 259 258 257 257 256 256 256 256 256 255 256 256 256 256 256 257 257 257 257 257 258 258 258 259 259 260 260 260 261 261 261 261 262 262 263 263 263 264 264 264 265 265 266 266 267 267 268 268 268 268 268 267 267 267 267 267 267 267 267 267 267 267 267 268 268 268 269 269 269 269 269 270 270 270 270 270 270 270 270 270 271 271 271 271
263 263 262 261 261 261 261 261 261 260 260 260 261 262 259 257 258 259 257 257 257 257 257 257 257 258 257 257 257 258 258 258 257 257 258 258 258 259 259 259 260 260 260 261 261 262 262 262 262 263 263 264 264 264 265 266 266 266 266 267 267 267 267 267 267 267 267 267 267 267 267 267 267 267 267 268 268 268 269 269 269 269 269 269 269 269 269 270 270 270 270 270 270 271 271 271 271
265 265 265 264 263 263 263 263 263 263 262 262 263 263 260 256 257 259 259 258 258 257 256 257 259 261 260 258 257 258 259 259 259 259 259 259 259 259 259 260 260 260 260 261 261 261 261 261 262 262 263 263 264 264 264 265 265 265 266 266 266 266 266 266 266 267 267 267 267 267 268 268 268 268 268 268 268 268 268 268 269 269 269 269 269 270 270 270 270 271 271 271 271 271 272 272 272
267 266 265 266 266 265 265 264 265 265 264 265 266 264 261 259 258 259 260 259 258 258 257 256 257 259 261 261 259 258 258 259 260 260 260 260 261 260 260 261 261 261 261 261 261 261 261 261 262 262 262 263 263 263 264 264 264 265 265 265 265 266 266 266 266 267 267 267 267 268 268 268 268 268 268 268 268 268 269 269 269 270 270 270 271 271 271 271 271 272 272 272 273 273 273 273 274
267 266 266 267 267 267 267 266 266 266 266 266 266 265 265 264 262 261 259 258 259 260 261 260 258 257 258 261 261 261 260 259 259 260 261 261 261 261 261 261 262 262 262 262 262 262 262 262 262 262 263 263 263 263 263 264 264 264 265 265 265 265 265 266 266 267 267 267 267 268 268 268 268 268 269 269 269 269 270 270 270 271 271 271 272 272 272 272 273 273 274 274 274 274 275 275 275
268 267 267 267 267 267 267 268 267 267 267 266 265 267 268 266 265 262 260 260 261 262 262 263 262 260 259 260 261 262 262 262 261 261 261 261 262 262 262 262 262 263 263 263 263 263 263 263 263 263 263 263 263 263 263 264 264 264 264 265 265 265 266 266 266 267 267 267 268 268 268 268 268 269 269 270 270 270 270 271 271 271 272 272 272 273 273 274 274 274 275 275 275 275 275 275 275
270 269 268 268 269 269 268 268 268 268 268 266 266 267 268 267 265 263 263 263 263 263 263 263 263 263 262 261 261 261 262 263 263 262 261 261 262 262 263 263 263 264 264 264 264 264 264 264 264 263 263 263 263 264 264 264 264 264 265 265 265 266 266 267 267 267 268 268 268 268 269 269 269 269 270 270 271 271 271 272 272 272 272 273 273 274 274 274 275 275 275 275 275 275 275 275 276
272 271 270 270 270 270 270 270 270 270 269 268 268 268 268 267 265 265 265 265 263 262 263 263 263 263 263 262 262 262 261 261 262 262 262 262 262 262 262 263 263 263 264 264 264 264 263 263 263 263 263 263 263 264 264 264 264 265 265 266 266 266 267 267 267 267 268 268 268 269 269 269 270 270 270 271 271 272 272 272 272 273 273 273 274 274 274 275 275 275 275 275 275 275 275 275 275
273 272 272 272 272 271 271 272 272 272 270 270 270 270 270 270 269 267 267 266 266 264 263 262 263 263 264 263 262 262 262 261 261 261 261 262 262 261 262 262 262 262 263 263 263 263 263 263 263 263 263 263 263 263 264 264 264 265 266 266 266 266 267 267 267 268 268 268 268 269 270 270 270 271 271 271 272 272 273 273 273 273 273 273 274 274 274 274 274 274 274 275 275 275 275 275 275
274 274 274 273 272 272 272 273 273 272 271 271 271 270 271 271 271 271 270 269 269 267 265 264 263 263 264 264 264 263 262 262 262 262 262 261 261 261 261 261 261 261 262 262 262 262 262 262 263 263 263 263 263 263 263 264 264 265 265 266 266 266 267 267 267 268 268 268 268 269 270 271 271 271 271 272 272 272 273 273 273 273 273 273 273 273 274 274 274 274 274 274 275 275 275 275 275
273 274 275 274 273 274 274 273 273 272 273 273 272 270 270 271 271 271 271 271 271 270 268 266 265 264 264 265 265 265 264 263 263 262 262 262 262 262 262 262 262 262 262 262 262 262 262 262 262 262 262 262 262 263 263 263 264 264 265 265 266 266 267 267 267 268 268 269 269 270 270 271 271 272 272 272 272 272 273 273 273 273 273 273 273 274 274 274 274 274 274 275 275 275 275 275 276
273 272 273 275 275 275 275 273 273 274 274 274 273 272 271 271 271 271 271 271 271 270 269 268 267 266 265 265 266 266 266 266 265 263 262 262 262 262 262 262 262 262 261 261 261 261 261 261 261 261 261 262 262 262 262 263 263 264 264 265 265 266 266 267 267 268 269 269 270 270 270 271 271 272 272 272 273 273 273 273 274 274 273 273 274 274 274 274 274 275 275 275 275 275 275 276 276
275 274 273 273 274 276 275 274 274 275 275 273 273 274 273 272 272 272 272 271 269 268 268 268 268 267 267 267 267 267 267 266 266 265 264 263 263 262 262 261 261 261 261 261 261 261 261 261 261 261 261 261 262 262 262 263 263 264 264 264 265 266 266 267 267 268 269 269 270 270 270 271 271 271 272 272 273 273 273 273 274 274 274 274 274 274 274 275 275 275 275 275 275 275 275 276 276
277 276 274 273 273 274 275 275 275 275 275 274 273 274 275 275 275 274 272 271 269 269 268 268 268 269 268 267 267 267 266 266 266 265 265 264 264 263 262 262 262 261 261 261 261 261 261 261 261 262 262 262 262 262 262 263 263 263 264 264 265 265 266 267 267 268 268 269 269 270 270 270 271 271 271 272 272 273 273 273 273 274 274 274 274 274 275 275 275 275 275 276 276 276 276 276 276
278 277 275 274 273 273 273 276 276 275 274 274 274 274 275 277 277 276 273 270 269 270 271 270 270 270 269 268 267 267 266 267 267 266 266 265 265 264 263 263 262 262 261 261 261 261 262 262 262 262 262 262 262 262 263 263 263 263 264 264 265 265 266 266 267 268 268 269 269 269 270 270 271 271 272 272 272 273 273 273 274 274 274 275 275 275 275 275 275 275 276 276 277 277 277 277 276
277 277 277 275 273 273 273 275 275 275 274 273 273 275 277 278 277 276 274 271 269 270 272 273 272 272 271 269 268 268 268 267 267 267 266 266 266 265 264 264 263 263 262 262 262 262 262 262 262 263 263 263 263 263 263 264 264 264 264 265 265 266 266 267 267 268 268 269 269 269 270 270 271 271 272 272 272 273 273 273 274 274 274 275 275 275 275 275 275 275 276 276 276 277 277 277 277
278 276 277 277 275 274 273 273 274 275 275 274 272 273 277 278 277 276 275 274 272 271 272 274 273 272 272 272 272 271 270 269 268 267 266 266 266 265 265 265 264 264 263 263 263 263 263 263 263 263 263 263 264 264 264 264 264 265 265 265 266 266 267 267 268 268 269 269 269 270 270 271 271 272 272 272 273 273 273 274 274 274 274 274 275 275 275 275 275 276 276 276 276 276 277 277 277